TimeCDT,TemperatureF,Dew PointF,Humidity,Sea Level PressureIn,VisibilityMPH,Wind Direction,Wind SpeedMPH,Gust SpeedMPH,PrecipitationIn,Events,Conditions,WindDirDegrees,DateUTC
12:55 AM,55.9,42.4,61,30.30,10.0,ENE,9.2,-,N/A,,Partly Cloudy,70,2012-03-11 06:55:00
1:55 AM,55.8,43.9,64,30.29,10.0,ENE,8.1,-,N/A,,Clear,70,2012-03-11 07:55:00
3:55 AM,55.4,44.4,67,30.29,10.0,East,9.2,-,N/A,,Clear,80,2012-03-11 08:55:00
4:55 AM,55.0,45.1,69,30.30,10.0,ENE,8.1,-,N/A,,Scattered Clouds,60,2012-03-11 09:55:00
5:55 AM,54.7,44.8,69,30.31,10.0,ENE,10.4,-,N/A,,Mostly Cloudy,70,2012-03-11 10:55:00
6:55 AM,54.0,44.2,70,30.33,10.0,ENE,11.5,-,N/A,,Partly Cloudy,60,2012-03-11 11:55:00
7:55 AM,54.7,46.2,73,30.33,10.0,ENE,10.4,-,N/A,,Overcast,60,2012-03-11 12:55:00
8:55 AM,57.2,49.6,76,30.36,10.0,ENE,13.8,19.6,N/A,,Overcast,60,2012-03-11 13:55:00
9:55 AM,61.5,52.7,73,30.37,10.0,East,13.8,-,N/A,,Scattered Clouds,80,2012-03-11 14:55:00
10:28 AM,62.6,53.6,72,30.37,10.0,East,10.4,-,N/A,,Mostly Cloudy,90,2012-03-11 15:28:00
10:55 AM,64.2,54.9,72,30.36,10.0,East,11.5,-,N/A,,Overcast,90,2012-03-11 15:55:00
11:55 AM,66.2,57.2,73,30.35,10.0,East,10.4,-,N/A,,Overcast,90,2012-03-11 16:55:00
12:55 PM,67.6,58.1,71,30.33,10.0,ESE,11.5,-,N/A,,Overcast,110,2012-03-11 17:55:00
1:55 PM,69.8,59.0,68,30.30,10.0,ENE,12.7,-,N/A,,Overcast,70,2012-03-11 18:55:00
2:52 PM,71.6,59.0,64,30.27,10.0,East,10.4,-,N/A,,Overcast,80,2012-03-11 19:52:00
2:54 PM,71.6,59.0,64,30.27,10.0,East,8.1,-,N/A,,Overcast,80,2012-03-11 19:54:00
2:55 PM,70.9,59.7,68,30.27,10.0,East,6.9,-,N/A,,Overcast,80,2012-03-11 19:55:00
3:22 PM,69.8,59.0,68,30.27,10.0,ENE,8.1,-,N/A,,Overcast,70,2012-03-11 20:22:00
3:55 PM,69.8,59.2,69,30.26,10.0,East,9.2,-,N/A,,Overcast,90,2012-03-11 20:55:00
4:55 PM,69.3,60.1,72,30.25,10.0,ENE,8.1,-,N/A,,Overcast,70,2012-03-11 21:55:00
5:08 PM,69.8,59.0,68,30.25,10.0,East,6.9,-,N/A,,Mostly Cloudy,80,2012-03-11 22:08:00
5:55 PM,70.0,60.1,71,30.26,10.0,East,8.1,-,N/A,,Scattered Clouds,90,2012-03-11 22:55:00
6:24 PM,69.8,60.8,73,30.26,10.0,East,9.2,-,N/A,,Overcast,90,2012-03-11 23:24:00
6:32 PM,69.8,60.8,73,30.26,10.0,East,6.9,-,N/A,,Overcast,90,2012-03-11 23:32:00
6:35 PM,69.8,60.8,73,30.26,10.0,East,8.1,-,N/A,,Overcast,100,2012-03-11 23:35:00
6:55 PM,69.4,60.1,72,30.26,10.0,East,9.2,-,N/A,,Mostly Cloudy,90,2012-03-11 23:55:00
7:03 PM,69.8,60.8,73,30.27,10.0,East,8.1,-,N/A,,Mostly Cloudy,100,2012-03-12 00:03:00
7:55 PM,68.5,59.9,74,30.27,10.0,East,8.1,-,N/A,,Mostly Cloudy,100,2012-03-12 00:55:00
8:55 PM,68.0,59.5,74,30.27,10.0,East,8.1,-,N/A,,Overcast,100,2012-03-12 01:55:00
9:05 PM,68.0,59.0,73,30.27,10.0,East,8.1,-,N/A,,Overcast,100,2012-03-12 02:05:00
9:55 PM,67.6,59.4,75,30.27,10.0,East,9.2,-,N/A,,Overcast,100,2012-03-12 02:55:00
10:55 PM,67.1,59.5,77,30.28,10.0,ESE,9.2,-,N/A,,Overcast,120,2012-03-12 03:55:00
11:55 PM,66.6,59.9,79,30.28,10.0,ESE,8.1,-,N/A,,Overcast,110,2012-03-12 04:55:00
12:55 AM,65.5,59.9,82,30.29,10.0,ESE,11.5,-,N/A,,Overcast,110,2012-03-12 05:55:00